Regional Weather Roundup
Issued by NWS

Home | Current Version | Previous Version | Graphics & Text | Print | Product List | Glossary On
Versions: 1 2 3 4 5 6 7 8 9 10 11 12 13 14 15 16 17 18 19 20 21 22 23 24 25 26 27 28 29 30 31 32 33 34 35 36 37 38 39 40 41 42 43 44 45 46 47 48 49 50
000
ASUS45 KBOI 310410
RWRID
WEATHER ROUNDUP FOR IDAHO
NATIONAL WEATHER SERVICE BOISE ID
900 PM MST FRI JAN 30 2015

NOTE: "FAIR" INDICATES FEW OR NO CLOUDS BELOW 12000 FEET
WITH NO SIGNIFICANT WEATHER AND/OR OBSTRUCTIONS TO VISIBILITY

IDZ012-014-310500-
SOUTHWEST IDAHO


CITY           SKY/WX    TMP DP  RH WIND       PRES   REMARKS
BOISE          CLEAR     34  29  82 CALM      30.15S
CALDWELL       CLEAR     34  25  69 W3        30.18S
MOUNTAIN HOME  CLEAR     33  29  88 W8        30.14S WCI  25
$$

IDZ016-017-310500-
SOUTHCENTRAL IDAHO


CITY           SKY/WX    TMP DP  RH WIND       PRES   REMARKS
BURLEY         CLOUDY    34  30  85 S6        30.12R WCI  29
JEROME         CLOUDY    35  31  85 W9        30.12F WCI  28
TWIN FALLS     CLOUDY    37  31  78 W8        30.13S WCI  31
$$

IDZ019>023-310500-
SOUTHEAST IDAHO


CITY           SKY/WX    TMP DP  RH WIND       PRES   REMARKS
IDAHO FALLS    PTCLDY    31  26  82 CALM      30.08F
POCATELLO      MOCLDY    33  33 100 SW10      30.10S WCI  25
REXBURG        PTCLDY    25  22  88 CALM      30.07F
$$

IDZ006-010-011-018-031-032-310500-
CENTRAL IDAHO MOUNTAINS


CITY           SKY/WX    TMP DP  RH WIND       PRES   REMARKS
MCCALL         CLEAR     24  19  81 NE5       30.11R WCI  18
HAILEY         PTCLDY    28  23  80 NW8       30.11S WCI  20
STANLEY          N/A      7   3  84 CALM      30.16R
SALMON         CLOUDY    27  19  74 E5        30.24F WCI  21
CHALLIS        CLOUDY    26  20  77 CALM      30.21S
$$

IDZ002-004-006-007-026-310500-
NORTHERN IDAHO


CITY           SKY/WX    TMP DP  RH WIND       PRES   REMARKS
LEWISTON       CLOUDY    36  33  89 W6        30.30F WCI  31
LOWELL           N/A     34  30  85 CALM      30.33R
COEUR D`ALENE  CLOUDY    30  27  86 W6        30.24S VSB 1/2 WCI  24
MULLAN PASS    PTCLDY    27  21  78 W5        30.11F WCI  22
$$



USA.gov is the U.S. government's official web portal to all federal, state and local government web resources and services.